GLOBALSTAR M006 [+]

Last updated on Thu May 05 2016 07:39:16 GMT+0000 (Coordinated Universal Time)

1 25307U 98023B 16126.22298388 -.00000083 00000-0 -15526-3 0 9992 2 25307 51.9936 230.5417 0001331 180.5808 195.7884 11.58296346831113
UTC large
Height (km)
Speed (km/s)
/
Latitude / Longitude
Inclination (degrees)
Orbital Period (minutes)
Azimuth
Elevation
Range (km)
Doppler Factor

Next 0 passes for location: London (51.5072 / 0.1276)

Sorry there are no passes over London.